This is the latest recevied weather packets stored in our database for station/object VANOK. If no packets are shown the sender has not sent any weather packets the latest 10 day(s).
| Time | Temp. | Humidity | Pressure | Rain* | Wind** | Luminosity | Snow |
|---|---|---|---|---|---|---|---|
| 1777241201 | 3.89° C | 68% | 1013.3 hPa | - | - | - | - |
| 1777240001 | 3.89° C | 66% | 1013.3 hPa | - | - | - | - |
| 1777238800 | 3.89° C | 68% | 1013.2 hPa | - | - | - | - |
| 1777237600 | 3.89° C | 69% | 1013.1 hPa | - | - | - | - |
| 1777236400 | 3.89° C | 69% | 1012.9 hPa | - | - | - | - |
| 1777235200 | 3.89° C | 71% | 1012.8 hPa | - | - | - | - |
| 1777233999 | 4.44° C | 68% | 1012.7 hPa | - | - | - | - |
| 1777232800 | 4.44° C | 71% | 1012.7 hPa | - | - | - | - |
| 1777231600 | 4.44° C | 65% | 1012.5 hPa | - | - | - | - |
| 1777230399 | 4.44° C | 67% | 1012.4 hPa | - | - | - | - |
| 1777229199 | 4.44° C | 63% | 1012.4 hPa | - | - | - | - |
| 1777228000 | 5° C | 60% | 1012.3 hPa | - | - | - | - |
| 1777226799 | 5° C | 59% | 1012.2 hPa | - | - | - | - |
| 1777225600 | 5° C | 57% | 1012.1 hPa | - | - | - | - |
| 1777224398 | 5.56° C | 57% | 1012 hPa | - | - | - | - |
| 1777223198 | 5.56° C | 57% | 1012 hPa | - | - | - | - |
| 1777222000 | 5.56° C | 56% | 1012 hPa | - | - | - | - |
| 1777220799 | 5.56° C | 53% | 1011.9 hPa | - | - | - | - |
| 1777219599 | 5.56° C | 51% | 1011.8 hPa | - | - | - | - |
| 1777218401 | 5.56° C | 52% | 1011.6 hPa | - | - | - | - |
| 1777217199 | 5.56° C | 54% | 1011.5 hPa | - | - | - | - |
| 1777215999 | 5.56° C | 54% | 1011.5 hPa | - | - | - | - |
| 1777214799 | 5.56° C | 54% | 1011.2 hPa | - | - | - | - |
| 1777213599 | 5.56° C | 53% | 1011.1 hPa | - | - | - | - |
| 1777212398 | 5.56° C | 49% | 1010.9 hPa | - | - | - | - |
* Rain since midnight (hover to see other rain measurements)
** Current wind speed in m/s (hover to see current wind gust speed)